Location: Winter Haven
(28.0220°N, 81.7330°W)
Time: 02:51:44
(UTC-04:00)

Amateur Radio Satellites - All Passes

Search period start: 24 July 2016 02:21
Search period end: 25 July 2016 02:21
Location: Winter Haven, 28.0220°N, 81.7330°W

Satellite Date Start Highest point End Downlink Frequencies (MHz)
Time Altitude Azimuth
GONETS M04 24 Jul 02:23:57 02:29:04 16° 72° (ENE) 02:34:09
BEESAT 24 Jul 02:27:14 02:31:08 25° 71° (ENE) 02:35:01 436.000
Gurwin Techsat 1B 24 Jul 02:40:07 02:44:28 25° 97° (E) 02:48:46 435.225
BUGSAT 1 24 Jul 02:46:54 02:48:11 11° 291° (WNW) 02:49:29 437.445
ITUPSAT 1 24 Jul 02:47:05 02:51:36 42° 74° (ENE) 02:56:07 437.325
AIST 1 24 Jul 02:47:37 02:50:56 22° 270° (W) 02:54:17
JUGNU 24 Jul 03:10:15 03:15:03 25° 167° (SSE) 03:19:50 437.505
ITAMSAT 1 24 Jul 03:17:16 03:20:34 17° 96° (E) 03:23:51 435.822/435.867
Oscar 19 24 Jul 03:29:07 03:33:50 37° 287° (WNW) 03:38:34 437.125/150
SRMSAT 24 Jul 03:34:55 03:36:04 11° 159° (SSE) 03:37:14 437.500
KKS-1 24 Jul 03:35:55 03:37:55 13° 68° (ENE) 03:39:54 437.445
Cosmos 2499 24 Jul 03:41:33 03:48:43 40° 78° (ENE) 03:55:24 435.465 / 435.565
MOZHAYETS 4 24 Jul 03:42:12 03:45:10 17° 70° (ENE) 03:48:08
SWISSCUBE 24 Jul 03:42:26 03:46:51 37° 261° (W) 03:51:17 437.505
BEESAT 24 Jul 04:04:57 04:08:45 23° 263° (W) 04:12:34 436.000
CUSAT 1 24 Jul 04:06:31 04:10:55 27° 97° (E) 04:14:27 437.405
AO-7 24 Jul 04:12:55 04:20:05 31° 100° (E) 04:27:11 29.400- 29.500
GONETS M04 24 Jul 04:17:46 04:26:33 77° 267° (W) 04:35:22
Gurwin Techsat 1B 24 Jul 04:19:47 04:24:16 29° 289° (WNW) 04:28:46 435.225
STARS 24 Jul 04:23:14 04:26:37 22° 71° (ENE) 04:30:01 437.465
ITUPSAT 1 24 Jul 04:27:03 04:29:31 14° 265° (W) 04:31:59 437.325
CUBESAT XI-V 24 Jul 04:54:02 04:54:40 10° 68° (ENE) 04:55:19 437.345
ITAMSAT 1 24 Jul 04:55:16 05:00:05 40° 287° (WNW) 05:04:53 435.822/435.867
JUGNU 24 Jul 04:58:16 05:03:41 37° 176° (S) 05:09:03 437.505
KKS-1 24 Jul 05:09:55 05:14:03 40° 260° (W) 05:18:14 437.445
MOZHAYETS 4 24 Jul 05:17:51 05:22:00 33° 262° (W) 05:26:12
SRMSAT 24 Jul 05:20:04 05:24:44 24° 166° (SSE) 05:29:23 437.500
DANDE 24 Jul 05:33:52 05:40:50 84° 276° (W) 05:46:05 436.750
Cosmos 2499 24 Jul 05:35:13 05:41:24 27° 274° (W) 05:47:17 435.465 / 435.565
CUSAT 1 24 Jul 05:49:23 05:52:41 17° 278° (W) 05:55:30 437.405
BEESAT 2 24 Jul 05:49:35 05:53:24 43° 61° (ENE) 05:57:11 435.950
BEESAT 3 24 Jul 05:50:43 05:54:40 82° 245° (WSW) 05:58:36 437.485
STARS 24 Jul 05:59:26 06:02:49 22° 263° (W) 06:06:14 437.465
AO-7 24 Jul 06:05:03 06:12:49 45° 293° (WNW) 06:20:34 29.400- 29.500
PCSat 24 Jul 06:05:29 06:10:27 36° 62° (ENE) 06:15:22 145.827
CUBESAT XI-V 24 Jul 06:26:59 06:31:31 55° 260° (W) 06:36:03 437.345
HORYU 2 24 Jul 06:31:43 06:36:10 70° 284° (WNW) 06:40:35 437.375
ISS 24 Jul 06:38:24 06:41:30 41° 44° (NE) 06:44:36 145.825
NOAA 15 24 Jul 06:40:02 06:44:15 24° 97° (E) 06:48:25 137.62
JUGNU 24 Jul 06:47:01 06:52:21 35° 186° (S) 06:57:38 437.505
LilacSat-2 24 Jul 06:52:32 06:55:16 18° 96° (E) 06:57:59 437.200
GOMX 1 24 Jul 06:54:38 06:58:25 20° 97° (E) 07:02:18 467.674
RS-15 24 Jul 07:03:52 07:14:23 48° 108° (ESE) 07:25:25 29.354- 29.394
DOVE 4 24 Jul 07:07:50 07:09:29 11° 93° (E) 07:11:09 437.250
SRMSAT 24 Jul 07:08:07 07:13:29 36° 175° (S) 07:18:51 437.500
BRITE-PL 24 Jul 07:10:58 07:15:50 73° 101° (E) 07:21:05 437.365/2234.400
AIST 2 24 Jul 07:20:50 07:23:46 18° 56° (ENE) 07:26:41 435.215
Cubesat XI-IV 24 Jul 07:22:15 07:27:25 49° 101° (E) 07:32:33 437.490
CUTE-I 24 Jul 07:46:55 07:52:17 89° 283° (WNW) 07:57:36 437.470
PCSat 24 Jul 07:49:31 07:53:32 21° 254° (WSW) 07:57:31 145.827
NOAA 18 24 Jul 07:53:04 07:58:36 81° 286° (WNW) 08:04:07 137.9125
STRAND 1 24 Jul 08:07:35 08:12:44 88° 255° (WSW) 08:17:55 437.568
NOAA 15 24 Jul 08:19:24 08:23:54 30° 289° (WNW) 08:28:24 137.62
CANX-2 24 Jul 08:25:14 08:27:55 17° 95° (E) 08:30:36 2200.000
LilacSat-2 24 Jul 08:26:36 08:29:24 19° 288° (WNW) 08:32:12 437.200
SO-50 24 Jul 08:30:15 08:34:20 27° 111° (ESE) 08:38:27 436.795
GOMX 1 24 Jul 08:31:49 08:36:24 35° 286° (WNW) 08:41:12 467.674
O/OREOS (USA 219) 24 Jul 08:35:52 08:40:22 70° 254° (WSW) 08:44:54 437.305
JUGNU 24 Jul 08:36:28 08:40:55 22° 195° (SSW) 08:45:21 437.505
CUTE 1.7 + AOD 2 24 Jul 08:38:53 08:42:06 21° 96° (E) 08:45:18 437.475
DOVE 4 24 Jul 08:42:14 08:47:19 61° 284° (WNW) 08:52:32 437.250
SRMSAT 24 Jul 08:56:57 09:02:18 36° 185° (S) 09:07:40 437.500
AIST 2 24 Jul 08:58:39 09:02:11 27° 249° (WSW) 09:05:43 435.215
Cubesat XI-IV 24 Jul 09:04:00 09:07:00 15° 293° (WNW) 09:10:00 437.490
CUBEBUG 2 24 Jul 09:14:26 09:17:55 20° 95° (E) 09:21:18 437.445
YUBILEINY 24 Jul 09:14:39 09:19:05 15° 81° (E) 09:23:30 435.215
RS-15 24 Jul 09:16:18 09:26:47 41° 306° (NW) 09:37:52 29.354- 29.394
PRISM 24 Jul 09:19:05 09:23:08 67° 76° (ENE) 09:27:11 437.425
CINEMA 3 24 Jul 09:19:24 09:24:27 86° 282° (WNW) 09:29:24 145.822/145.860
HO-68 24 Jul 09:20:57 09:28:09 72° 104° (ESE) 09:35:18 435.675
SEEDS 24 Jul 09:23:44 09:27:49 56° 100° (E) 09:31:53 437.485
COMPASS 1 24 Jul 09:42:00 09:46:06 65° 101° (E) 09:50:11 437.405
Cosmos 2491 24 Jul 09:45:32 09:54:04 56° 82° (E) 10:02:38 435.465 / 435.565
Oscar 11 24 Jul 09:56:18 09:59:52 25° 97° (E) 10:03:24 145.826/435.025
CANX-2 24 Jul 10:00:11 10:03:42 26° 287° (WNW) 10:07:12 2200.000
ANTELSAT 24 Jul 10:03:26 10:05:43 14° 69° (ENE) 10:08:01 437.575/2403.000
SO-50 24 Jul 10:10:42 10:14:43 25° 303° (WNW) 10:18:44 436.795
AAUSAT CUBESAT 2 24 Jul 10:13:50 10:17:53 59° 284° (WNW) 10:21:54 437.432
CUTE 1.7 + AOD 2 24 Jul 10:14:38 10:17:46 21° 288° (WNW) 10:20:55 437.475
M-CUBED/EXP-1 PRIME 24 Jul 10:30:30 10:34:09 22° 101° (E) 10:37:46 437.505
UWE-3 24 Jul 10:35:03 10:39:36 62° 284° (WNW) 10:44:02 435.000/436.395/437.385
ZACube-1 24 Jul 10:43:23 10:47:53 80° 282° (WNW) 10:52:15 437.345
TIGRISAT 24 Jul 10:43:55 10:48:09 39° 74° (ENE) 10:52:27 435.000
FUNcube-1 24 Jul 10:44:23 10:48:52 84° 283° (WNW) 10:53:13 145.935
SRMSAT 24 Jul 10:46:28 10:51:04 23° 194° (SSW) 10:55:40 437.500
CUBEBUG 2 24 Jul 10:50:28 10:54:26 27° 288° (WNW) 10:58:18 437.445
HUMSAT D 24 Jul 10:52:43 10:55:53 21° 96° (E) 10:59:01 437.325/437.525
UNISAT 6 24 Jul 10:58:49 11:03:18 66° 77° (ENE) 11:07:56 437.425
AUBIESAT-1 24 Jul 10:59:01 11:03:21 38° 103° (ESE) 11:07:36 437.475
DELFI C3 24 Jul 11:05:04 11:09:00 80° 101° (E) 11:12:56 145.870
YUBILEINY 24 Jul 11:05:59 11:14:44 79° 276° (W) 11:23:35 435.215
Cosmos 2504 24 Jul 11:06:30 11:14:00 33° 86° (E) 11:21:37 435.465 / 435.565
HO-68 24 Jul 11:10:55 11:15:04 17° 297° (WNW) 11:19:14 435.675
NANOSAT C BR1 24 Jul 11:19:46 11:21:27 12° 69° (ENE) 11:23:08 145.865
DUCHIFAT 1 24 Jul 11:25:20 11:27:22 13° 69° (ENE) 11:29:26 145.980
Oscar 11 24 Jul 11:32:45 11:35:46 19° 289° (WNW) 11:38:46 145.826/435.025
ANTELSAT 24 Jul 11:37:42 11:41:59 41° 261° (W) 11:46:21 437.575/2403.000
QB50P1 24 Jul 11:38:23 11:41:42 23° 72° (ENE) 11:45:03 145.935-145.965
Cosmos 2491 24 Jul 11:43:47 11:50:13 24° 276° (W) 11:56:42 435.465 / 435.565
POPSAT HIP 1 24 Jul 11:44:15 11:47:47 26° 73° (ENE) 11:51:21 437.405
BUGSAT 1 24 Jul 11:54:35 11:55:58 11° 69° (ENE) 11:57:20 437.445
JAS-2 24 Jul 11:59:17 12:02:52 16° 69° (ENE) 12:06:16 435.910
QB50P2 24 Jul 12:03:39 12:07:46 52° 75° (ENE) 12:11:55 145.880/145.840
M-CUBED/EXP-1 PRIME 24 Jul 12:04:30 12:08:32 29° 292° (WNW) 12:12:31 437.505
POLYITAN 1 24 Jul 12:06:17 12:10:24 54° 76° (ENE) 12:14:34 437.675
ESTCUBE 1 24 Jul 12:10:47 12:14:37 27° 98° (E) 12:18:26 437.505/2401.250
TIGRISAT 24 Jul 12:22:41 12:24:55 13° 266° (W) 12:27:09 435.000
HUMSAT D 24 Jul 12:28:13 12:31:20 21° 288° (WNW) 12:34:25 437.325/437.525
AUBIESAT-1 24 Jul 12:34:31 12:37:24 17° 295° (WNW) 12:40:17 437.475
SRMSAT 24 Jul 12:39:27 12:39:43 10° 201° (SSW) 12:40:01 437.500
VELOX 1 24 Jul 12:41:22 12:45:27 35° 99° (E) 12:49:30 145.980
CUBEBUG 1 24 Jul 12:51:07 12:55:26 56° 101° (E) 12:59:46 437.445
NANOSAT C BR1 24 Jul 12:52:51 12:56:46 38° 261° (W) 13:00:43 145.865
DUCHIFAT 1 24 Jul 12:58:53 13:02:42 34° 262° (W) 13:06:33 145.980
Cosmos 2504 24 Jul 12:58:53 13:07:01 43° 281° (W) 13:15:21 435.465 / 435.565
SPROUT 24 Jul 13:01:21 13:04:58 26° 97° (E) 13:08:33 437.525
Oscar 19 24 Jul 13:02:26 13:04:49 13° 67° (ENE) 13:07:14 437.125/150
YUBILEINY 24 Jul 13:11:46 13:12:43 10° 292° (WNW) 13:13:40 435.215
QB50P1 24 Jul 13:14:15 13:17:20 20° 263° (W) 13:20:27 145.935-145.965
POPSAT HIP 1 24 Jul 13:20:45 13:23:30 17° 264° (W) 13:26:16 437.405
50 SAT 24 Jul 13:21:29 13:24:58 50° 284° (WNW) 13:28:26 437.505
AISAT 24 Jul 13:25:34 13:29:56 58° 285° (WNW) 13:34:18 437.250
BUGSAT 1 24 Jul 13:27:12 13:30:55 36° 261° (W) 13:34:42 437.445
AIST 1 24 Jul 13:33:06 13:35:39 16° 89° (E) 13:38:13
DX 1 24 Jul 13:36:53 13:41:13 64° 284° (WNW) 13:45:32 434.975-435.025
JAS-2 24 Jul 13:41:07 13:47:36 57° 258° (WSW) 13:53:21 435.910
ESTCUBE 1 24 Jul 13:48:03 13:51:10 19° 289° (WNW) 13:54:17 437.505/2401.250
Gurwin Techsat 1B 24 Jul 13:54:54 13:58:48 21° 69° (ENE) 14:02:41 435.225
UKube-1 24 Jul 13:56:57 14:01:05 45° 285° (WNW) 14:05:12 .
AO-85 24 Jul 14:04:05 14:08:37 27° 110° (ESE) 14:13:04 145.980
TISAT 1 24 Jul 14:08:29 14:12:23 35° 99° (E) 14:16:15 437.305
VELOX 1 24 Jul 14:19:05 14:21:34 15° 290° (WNW) 14:24:01 145.980
ITAMSAT 1 24 Jul 14:29:32 14:32:03 14° 67° (ENE) 14:34:33 435.822/435.867
BEESAT 24 Jul 14:36:30 14:37:39 11° 94° (E) 14:38:49 436.000
SPROUT 24 Jul 14:37:40 14:40:39 19° 289° (WNW) 14:43:38 437.525
Oscar 19 24 Jul 14:38:41 14:43:38 52° 259° (W) 14:48:37 437.125/150
ITUPSAT 1 24 Jul 14:55:24 14:58:46 19° 96° (E) 15:02:08 437.325
AO-7 24 Jul 15:05:18 15:11:35 24° 62° (ENE) 15:17:50 29.400- 29.500
AIST 1 24 Jul 15:09:25 15:12:58 26° 280° (W) 15:16:31
GONETS M04 24 Jul 15:15:51 15:22:20 24° 85° (E) 15:28:49
Gurwin Techsat 1B 24 Jul 15:33:37 15:38:26 35° 261° (W) 15:43:16 435.225
AO-85 24 Jul 15:44:12 15:48:58 31° 301° (WNW) 15:53:36 145.980
TISAT 1 24 Jul 15:45:33 15:47:39 14° 290° (WNW) 15:49:45 437.305
SWISSCUBE 24 Jul 15:49:07 15:53:53 83° 283° (WNW) 15:58:37 437.505
ITAMSAT 1 24 Jul 16:05:53 16:10:59 54° 259° (W) 16:16:06 435.822/435.867
Cosmos 2499 24 Jul 16:07:33 16:15:40 43° 89° (E) 16:23:47 435.465 / 435.565
BEESAT 24 Jul 16:11:01 16:15:37 51° 285° (WNW) 16:20:12 436.000
RS-15 24 Jul 16:14:15 16:24:47 31° 50° (NE) 16:35:05 29.354- 29.394
DANDE 24 Jul 16:21:16 16:23:24 21° 82° (E) 16:25:42 436.750
CUSAT 1 24 Jul 16:27:03 16:30:03 43° 263° (W) 16:33:49 437.405
ITUPSAT 1 24 Jul 16:32:25 16:36:33 30° 288° (WNW) 16:40:40 437.325
AO-7 24 Jul 16:55:28 17:03:40 61° 256° (WSW) 17:11:56 29.400- 29.500
PHONESAT 2.4 24 Jul 17:00:56 17:03:17 20° 141° (SE) 17:05:37 2401.200-2431.200
KKS-1 24 Jul 17:07:20 17:11:47 66° 101° (E) 17:16:14 437.445
GONETS M04 24 Jul 17:10:06 17:18:29 54° 279° (W) 17:26:57
MOZHAYETS 4 24 Jul 17:19:16 17:23:50 82° 283° (WNW) 17:28:23
HORYU 2 24 Jul 17:22:40 17:26:54 43° 74° (ENE) 17:31:09 437.375
NOAA 15 24 Jul 17:53:56 17:57:38 20° 69° (ENE) 18:01:21 137.62
STARS 24 Jul 17:54:29 17:58:55 70° 284° (WNW) 18:03:19 437.465
Cosmos 2499 24 Jul 18:00:57 18:08:42 34° 282° (WNW) 18:16:29 435.465 / 435.565
BRITE-PL 24 Jul 18:16:11 18:20:01 33° 74° (ENE) 18:23:45 437.365/2234.400
RS-15 24 Jul 18:25:52 18:38:05 69° 249° (WSW) 18:49:58 29.354- 29.394
CUBESAT XI-V 24 Jul 18:30:17 18:34:51 63° 101° (E) 18:39:25 437.345
PHONESAT 2.4 24 Jul 18:36:45 18:39:39 37° 333° (NNW) 18:42:33 2401.200-2431.200
Cubesat XI-IV 24 Jul 18:37:21 18:42:21 41° 73° (ENE) 18:47:22 437.490
SO-50 24 Jul 18:48:06 18:52:29 45° 60° (ENE) 18:56:45 436.795
PCSat 24 Jul 19:00:15 19:02:09 12° 103° (ESE) 19:04:03 145.827
LilacSat-2 24 Jul 19:00:25 19:04:15 72° 77° (ENE) 19:08:07 437.200
CUTE-I 24 Jul 19:01:36 19:06:57 75° 75° (ENE) 19:12:19 437.470
HORYU 2 24 Jul 19:02:06 19:03:34 11° 265° (W) 19:05:02 437.375
NOAA 18 24 Jul 19:12:15 19:17:46 84° 256° (WSW) 19:23:20 137.9125
NOAA 15 24 Jul 19:32:18 19:37:06 36° 261° (W) 19:41:54 137.62
GOMX 1 24 Jul 19:33:22 19:37:27 61° 259° (W) 19:41:35 467.674
BEESAT 3 24 Jul 19:34:30 19:38:24 86° 300° (WNW) 19:42:20 437.485
BEESAT 2 24 Jul 19:34:50 19:38:32 41° 113° (ESE) 19:42:16 435.950
DOVE 4 24 Jul 19:41:12 19:45:16 60° 76° (ENE) 19:49:31 437.250
HO-68 24 Jul 19:43:01 19:48:43 26° 66° (ENE) 19:54:26 435.675
BRITE-PL 24 Jul 19:56:55 19:58:33 12° 265° (W) 20:00:10 437.365/2234.400
SEEDS 24 Jul 20:09:46 20:12:25 16° 71° (ENE) 20:15:06 437.485
CINEMA 3 24 Jul 20:14:17 20:18:16 36° 73° (ENE) 20:22:26 145.822/145.860
PHONESAT 2.4 24 Jul 20:15:51 20:16:42 11° 348° (NNW) 20:17:34 2401.200-2431.200
Cubesat XI-IV 24 Jul 20:18:56 20:22:28 18° 264° (W) 20:26:01 437.490
STRAND 1 24 Jul 20:25:16 20:30:17 56° 101° (E) 20:35:15 437.568
COMPASS 1 24 Jul 20:26:54 20:29:43 18° 72° (ENE) 20:32:33 437.405
SO-50 24 Jul 20:30:52 20:32:27 12° 253° (WSW) 20:34:01 436.795
PCSat 24 Jul 20:39:36 20:44:56 61° 295° (WNW) 20:50:18 145.827
CANX-2 24 Jul 20:44:56 20:49:13 85° 80° (E) 20:53:32 2200.000
AAUSAT CUBESAT 2 24 Jul 20:57:08 21:00:52 33° 74° (ENE) 21:04:37 437.432
CUTE 1.7 + AOD 2 24 Jul 20:58:58 21:03:15 74° 258° (WSW) 21:07:32 437.475
O/OREOS (USA 219) 24 Jul 21:02:30 21:06:24 30° 103° (ESE) 21:10:18 437.305
PRISM 24 Jul 21:08:38 21:11:10 16° 96° (E) 21:13:41 437.425
AIST 2 24 Jul 21:11:53 21:14:47 19° 109° (ESE) 21:17:41 435.215
BEESAT 2 24 Jul 21:15:11 21:16:32 11° 306° (NW) 21:17:51 435.950
UWE-3 24 Jul 21:24:38 21:28:52 43° 75° (ENE) 21:33:14 435.000/436.395/437.385
YUBILEINY 24 Jul 21:25:25 21:33:29 38° 78° (ENE) 21:41:26 435.215
HO-68 24 Jul 21:29:15 21:36:01 46° 259° (W) 21:42:53 435.675
ZACube-1 24 Jul 21:32:05 21:36:03 33° 74° (ENE) 21:40:08 437.345
FUNcube-1 24 Jul 21:32:51 21:36:46 31° 73° (ENE) 21:40:46 145.935
ISS 24 Jul 21:36:30 21:39:29 34° 128° (SE) 21:42:27 145.825
CUBEBUG 2 24 Jul 21:40:23 21:44:50 76° 260° (W) 21:49:26 437.445
AUBIESAT-1 24 Jul 21:40:42 21:42:17 12° 64° (ENE) 21:43:56 437.475
SEEDS 24 Jul 21:44:12 21:47:51 28° 262° (W) 21:51:30 437.485
DELFI C3 24 Jul 21:45:12 21:47:51 17° 72° (ENE) 21:50:29 145.870
CINEMA 3 24 Jul 21:53:21 21:55:31 13° 267° (W) 21:57:43 145.822/145.860
COMPASS 1 24 Jul 22:01:35 22:05:03 25° 263° (W) 22:08:31 437.405
STRAND 1 24 Jul 22:06:56 22:08:54 12° 293° (WNW) 22:10:52 437.568
Oscar 11 24 Jul 22:19:04 22:23:20 59° 259° (W) 22:27:39 145.826/435.025
AAUSAT CUBESAT 2 24 Jul 22:34:27 22:36:22 13° 265° (W) 22:38:17 437.432
Cosmos 2491 24 Jul 22:37:28 22:46:11 79° 93° (E) 22:54:53 435.465 / 435.565
O/OREOS (USA 219) 24 Jul 22:42:54 22:45:46 17° 296° (WNW) 22:48:39 437.305
PRISM 24 Jul 22:42:58 22:46:24 26° 287° (WNW) 22:49:51 437.425
TIGRISAT 24 Jul 22:43:53 22:46:29 15° 94° (E) 22:49:01 435.000
M-CUBED/EXP-1 PRIME 24 Jul 22:44:16 22:47:44 59° 255° (WSW) 22:51:29 437.505
AIST 2 24 Jul 22:49:39 22:53:02 25° 302° (WNW) 22:56:26 435.215
UNISAT 6 24 Jul 22:58:16 23:02:01 24° 97° (E) 23:05:41 437.425
Cosmos 2504 24 Jul 23:00:34 23:08:21 51° 81° (E) 23:15:33 435.465 / 435.565
UWE-3 24 Jul 23:03:50 23:05:28 12° 267° (W) 23:07:07 435.000/436.395/437.385
ESTCUBE 1 24 Jul 23:05:48 23:07:19 12° 68° (ENE) 23:08:48 437.505/2401.250
ZACube-1 24 Jul 23:09:39 23:12:21 16° 266° (W) 23:15:05 437.345
FUNcube-1 24 Jul 23:10:09 23:12:59 17° 265° (W) 23:15:52 145.935
HUMSAT D 24 Jul 23:11:01 23:15:18 78° 259° (W) 23:19:37 437.325/437.525
AUBIESAT-1 24 Jul 23:13:16 23:16:23 29° 258° (WSW) 23:19:44 437.475
ISS 24 Jul 23:14:04 23:15:58 15° 322° (NW) 23:17:53 145.825
DELFI C3 24 Jul 23:19:16 23:22:28 23° 263° (W) 23:25:40 145.870
YUBILEINY 24 Jul 23:22:16 23:30:01 36° 273° (W) 23:37:43 435.215
PHONESAT 2.4 24 Jul 23:29:09 23:31:31 20° 21° (NNE) 23:33:52 2401.200-2431.200
VELOX 1 24 Jul 23:33:40 23:35:49 14° 69° (ENE) 23:37:58 145.980
ANTELSAT 24 Jul 23:36:08 23:40:45 73° 102° (ESE) 23:45:14 437.575/2403.000
CUBEBUG 1 24 Jul 23:41:14 23:44:18 19° 71° (ENE) 23:47:22 437.445
50 SAT 24 Jul 23:52:43 23:55:33 21° 73° (ENE) 23:58:24 437.505
QB50P2 24 Jul 23:56:49 23:59:21 15° 95° (E) 00:01:52 145.880/145.840
POLYITAN 1 24 Jul 23:59:24 00:02:00 16° 95° (E) 00:04:36 437.675
AISAT 25 Jul 00:15:51 00:20:03 49° 75° (ENE) 00:24:17 437.250
TIGRISAT 25 Jul 00:18:59 00:23:12 35° 287° (WNW) 00:27:18 435.000
AO-85 25 Jul 00:22:59 00:26:53 35° 59° (ENE) 00:30:31 145.980
DX 1 25 Jul 00:25:27 00:29:31 42° 74° (ENE) 00:33:37 434.975-435.025
UNISAT 6 25 Jul 00:34:59 00:38:32 22° 289° (WNW) 00:42:01 437.425
Cosmos 2491 25 Jul 00:39:03 00:43:44 15° 289° (WNW) 00:48:27 435.465 / 435.565
ESTCUBE 1 25 Jul 00:39:20 00:43:39 46° 260° (W) 00:47:58 437.505/2401.250
NANOSAT C BR1 25 Jul 00:43:46 00:47:58 56° 101° (E) 00:52:07 145.865
UKube-1 25 Jul 00:44:11 00:48:23 57° 76° (ENE) 00:52:37 .
DUCHIFAT 1 25 Jul 00:49:23 00:53:37 62° 101° (E) 00:57:48 145.980
Cosmos 2504 25 Jul 00:55:18 01:01:01 22° 276° (W) 01:06:29 435.465 / 435.565
TISAT 1 25 Jul 00:56:08 00:57:04 11° 68° (ENE) 00:58:01 437.305
JAS-2 25 Jul 00:57:49 01:02:03 23° 98° (E) 01:06:35 435.910
QB50P1 25 Jul 01:04:30 01:08:47 71° 283° (WNW) 01:13:01 145.935-145.965
PHONESAT 2.4 25 Jul 01:05:10 01:08:10 52° 215° (SW) 01:11:08 2401.200-2431.200
VELOX 1 25 Jul 01:07:51 01:11:53 37° 261° (W) 01:15:57 145.980
JUGNU 25 Jul 01:08:46 01:11:26 13° 160° (SSE) 01:14:06 437.505
POPSAT HIP 1 25 Jul 01:10:44 01:14:58 60° 284° (WNW) 01:19:09 437.405
BUGSAT 1 25 Jul 01:15:21 01:19:30 51° 100° (E) 01:23:38 437.445
CUBEBUG 1 25 Jul 01:16:52 01:20:22 24° 263° (W) 01:23:53 437.445
AIST 1 25 Jul 01:22:48 01:26:48 36° 81° (E) 01:30:49
SPROUT 25 Jul 01:22:52 01:27:03 58° 259° (W) 01:31:17 437.525
50 SAT 25 Jul 01:26:53 01:29:05 15° 264° (W) 01:31:16 437.505
QB50P2 25 Jul 01:31:22 01:35:07 30° 287° (WNW) 01:38:50 145.880/145.840
POLYITAN 1 25 Jul 01:34:03 01:37:46 29° 287° (WNW) 01:41:28 437.675
ITUPSAT 1 25 Jul 01:57:53 01:58:54 11° 67° (ENE) 01:59:55 437.325
DX 1 25 Jul 02:04:47 02:05:48 11° 265° (W) 02:06:50 434.975-435.025
AO-85 25 Jul 02:05:31 02:06:48 11° 254° (WSW) 02:08:03 145.980
